{"data":{"norad_id":58706,"epoch":"2026-05-25T00:49:53.283936Z","epoch_age_seconds":71953,"freshness":"FRESH","line1":"1 58706U 24002B   26145.03464449 -.00000986  00000+0 -32940-5 0  9993","line2":"2 58706  53.1608 257.2675 0000191 110.6571 249.4468 15.69719395138438","mean_motion":15.69719395,"eccentricity":1.91e-5,"inclination_deg":53.1608,"raan_deg":257.2675,"arg_perigee_deg":110.6571,"mean_anomaly_deg":249.4468,"bstar":-3.294e-6,"rev_number":13843,"period_min":91.736141159166,"perigee_km":359.57117297595,"apogee_km":359.82855834422,"semimajor_km":6737.8368656601,"source":"CELESTRAK","updated_at":"2026-05-25T13:38:18.714687Z"}}